Location: Lone Pine Community Mobile Home Park
(42.7367°N, 73.8567°W)
Time: 04:30:24
(UTC+00:00)

Cosmos 1980 Rocket - Pass Details

Date: 29 October 2020
Orbit: 831 x 848 km, 71.0° (Epoch: 27 November)

Event Time Altitude Azimuth Distance (km) Brightness Sun altitude
Rises 22:34:26 0° 161° (SSE) 3,377 5.2 -8.5°
Reaches altitude 10° 22:37:30 10° 144° (SE) 2,444 4.4 -9.1°
Maximum altitude 22:41:23 20° 100° (E) 1,862 3.4 -9.8°
Enters shadow 22:45:06 11° 57° (ENE) 2,402 4.0 -10.4°
